2018 Great Southern Half Marathon & 10K
Skip Navigation Links
Results
Entry Statistics
Mobile Results
Race Website
15 Jul 2018
HyperLink
Provisional Results. Please email any queries to Event Strategies before 6pm Wed 18 July after which results will be proclaimed “FINAL”
Page 1 of 8 (357 items)
[1]2345678
Pos
Race No
Fav
Share
Name
Time
Category
Cat Pos
Age
Gender
Gen Pos
Club
Dist
Pace
Wave
1143Paul MULHOLLAND01:14:09.740-44142Male1Adelaide Harriers21.13:30 min:sec/km21.1K start at 9:30am
254Byron GOODRICK01:20:51.815-19119Male2Fast Lane Coaching21.13:49 min:sec/km21.1K start at 9:30am
327Luke ELLIOTT01:23:46.225-29126Male3Southern Athletic Club21.13:58 min:sec/km21.1K start at 9:30am
4342Dave TALBOT01:24:23.040-44244Male4 21.13:59 min:sec/km21.1K start at 9:30am
5399Phil NEIL01:25:56.930-34133Male5 21.14:04 min:sec/km21.1K start at 9:30am
6272Chris BICKLE01:26:40.535-39139Male6 21.14:06 min:sec/km21.1K start at 9:30am
7300Mike KLOCKE01:28:05.020-24123Male7Adelaide Harriers21.14:10 min:sec/km21.1K start at 9:30am
7357Tim PRYOR01:28:05.025-29226Male7Adelaide Harriers21.14:10 min:sec/km21.1K start at 9:30am
9394Pieter DE WIT01:30:10.245-49148Male9Adelaide Harriers21.14:16 min:sec/km21.1K start at 9:30am
10359Bryn NICHOLLS01:30:10.540-44340Male10Adelaide Harriers21.14:16 min:sec/km21.1K start at 9:30am
10365Liam FITZPATRICK01:30:10.530-34233Male10Adelaide Harriers21.14:16 min:sec/km21.1K start at 9:30am
12363Michael VARNEY01:30:10.845-49247Male12Adelaide Harriers21.14:16 min:sec/km21.1K start at 9:30am
13326Cameron BROWN01:30:10.930-34333Male13Adelaide Harriers21.14:16 min:sec/km21.1K start at 9:30am
14379Jason HATZIMIHAIL01:30:58.930-34433Male14Adelaide Triathlon Club21.14:18 min:sec/km21.1K start at 9:30am
15440Belinda RICHARDSON01:31:08.630-34133Female1Adelaide Harriers21.14:19 min:sec/km21.1K start at 9:30am
16374Gordon KNIGHT01:31:13.945-49348Male15 21.14:19 min:sec/km21.1K start at 9:30am
1784Peter HANNA01:31:44.930-34532Male16 21.14:20 min:sec/km21.1K start at 9:30am
18354Tim KASSEBAUM01:32:39.230-34631Male17 21.14:23 min:sec/km21.1K start at 9:30am
19382Andy EY01:33:39.630-34731Male18 21.14:26 min:sec/km21.1K start at 9:30am
20438Jack HUNTER01:33:45.215-19219Male19Adelaide Harriers21.14:26 min:sec/km21.1K start at 9:30am
21360Michael NITSCHKE01:34:06.530-34832Male20Adelaide Harriers21.14:27 min:sec/km21.1K start at 9:30am
22358Mitch DURBRIDGE01:34:07.045-49447Male21Adelaide Harriers21.14:27 min:sec/km21.1K start at 9:30am
23339Paul SMITH01:34:10.930-34933Male22Adelaide Harriers21.14:27 min:sec/km21.1K start at 9:30am
24429Sinead NOONAN01:34:11.325-29126Female2Adelaide Harriers21.14:27 min:sec/km21.1K start at 9:30am
25356Adrian POTTER01:34:15.720-24223Male23Adelaide Harriers21.14:28 min:sec/km21.1K start at 9:30am
26437Eamon HARTY01:34:16.330-341030Male24Adelaide Harriers21.14:28 min:sec/km21.1K start at 9:30am
27373Acacia WADHAM01:34:20.720-24122Female3 21.14:28 min:sec/km21.1K start at 9:30am
28443Daniel Brewster01:34:36.135-39235Male25 21.14:29 min:sec/km21.1K start at 9:30am
29403Steve HODGSON01:35:06.640-44442Male26 21.14:30 min:sec/km21.1K start at 9:30am
30284Declan MILLINGTON01:35:25.925-29329Male27 21.14:31 min:sec/km21.1K start at 9:30am
31412Matthew KENNY01:35:26.230-341132Male28Trail Running SA21.14:31 min:sec/km21.1K start at 9:30am
32320Matthew BARTER01:35:34.840-44544Male29Lochiel parkrun21.14:31 min:sec/km21.1K start at 9:30am
3328Mick ATHERTON01:35:44.260-64162Male30Southern Athletic Club21.14:32 min:sec/km21.1K start at 9:30am
34267Nathan GRIEGER01:35:54.630-341233Male31 21.14:32 min:sec/km21.1K start at 9:30am
3569Hunter WINDOW01:35:56.315-19315Male32Camden Running Club21.14:32 min:sec/km21.1K start at 9:30am
36321Kate DIDYK01:35:58.830-34234Female4Team Tempo21.14:32 min:sec/km21.1K start at 9:30am
37355Brad ELLIOTT01:36:00.335-39335Male33 21.14:32 min:sec/km21.1K start at 9:30am
38402Mark MOYLE01:36:24.835-39436Male34Absolute Edge Lifestyles21.14:34 min:sec/km21.1K start at 9:30am
3915Jason STEVENS01:36:45.240-44640Male35Southern Athletic Club21.14:35 min:sec/km21.1K start at 9:30am
40427Rob PRESSER01:36:50.245-49545Male36 21.14:35 min:sec/km21.1K start at 9:30am
41380Steve HODGKISON01:36:50.830-341333Male37 21.14:35 min:sec/km21.1K start at 9:30am
42384Jonathan MILLER01:37:16.450-54153Male38Trail Running SA21.14:36 min:sec/km21.1K start at 9:30am
4357Gen HALL01:37:29.135-39135Female5enerGplus21.14:37 min:sec/km21.1K start at 9:30am
44318Nick MCDERMOTT01:38:02.440-44744Male39Adelaide Harriers21.14:38 min:sec/km21.1K start at 9:30am
4592Terence RICKETTS01:38:47.535-39539Male40Absolute Edge Lifestyles21.14:40 min:sec/km21.1K start at 9:30am
46308Tony KENNEDY01:38:54.945-49645Male41 21.14:41 min:sec/km21.1K start at 9:30am
47407Andrew BURNS01:39:03.760-64260Male42Adelaide Harriers21.14:41 min:sec/km21.1K start at 9:30am
48122Alex MACLEOD01:39:04.530-341431Male43 21.14:41 min:sec/km21.1K start at 9:30am
49409Andrew DILLON01:39:05.440-44840Male44 21.14:41 min:sec/km21.1K start at 9:30am
50332Justin BARNETT01:39:09.130-341532Male45 21.14:41 min:sec/km21.1K start at 9:30am
Page 1 of 8 (357 items)
[1]2345678
fb

HyperLink Copyright (c) G Vincent, 2018